Wind_Speed
22 22 22 22 22 22 22 22 22 22 22 22 22 22 22 21 21 21 22 23 23 24 24 25 26 27 27 27 28 28 28 28 28 28 28 28 28 29 29 29 28 28 29
23 23 23 23 23 23 22 22 22 22 22 22 21 22 22 22 21 21 21 22 22 23 23 24 24 26 26 26 27 27 26 26 26 27 26 26 25 25 26 26 26 26 27
24 24 24 24 24 23 23 22 22 22 22 22 22 22 22 22 22 21 22 22 22 22 22 22 23 24 24 25 25 25 24 24 25 25 24 24 24 24 25 26 26 26 26
25 25 25 24 24 24 23 23 23 23 23 23 22 22 23 22 22 22 22 22 22 22 22 23 23 23 23 23 22 22 23 23 23 23 22 22 22 23 23 23 23 23 23
25 25 25 25 25 25 24 24 24 23 24 24 23 23 22 22 22 22 21 21 20 20 20 20 21 21 20 20 20 20 21 21 20 20 20 20 21 21 22 21 21 21 22
25 25 25 24 24 24 24 24 23 23 23 23 23 23 22 22 21 21 20 20 19 18 18 17 17 17 18 19 19 19 19 19 19 19 19 19 20 19 19 20 20 21 22
23 23 23 23 23 23 23 22 22 21 21 21 21 21 21 20 20 19 19 18 18 17 16 16 16 15 16 16 17 17 18 18 19 19 18 18 18 17 18 19 19 19 19
22 21 22 22 22 21 21 21 20 19 19 19 19 18 18 18 17 17 16 16 15 14 14 14 14 13 14 15 15 16 16 16 17 17 17 17 17 16 16 16 16 17 17
20 20 20 20 19 19 19 18 17 16 16 16 16 15 15 16 16 15 14 14 13 12 12 12 12 12 13 14 14 14 14 14 14 14 14 14 14 14 14 14 14 14 14
19 19 18 17 17 16 15 14 14 14 13 13 13 13 13 13 13 13 12 11 11 10 9 9 9 8 9 11 11 11 11 11 11 11 12 12 12 12 11 11 11 12 12
16 16 16 15 14 14 12 11 11 11 10 10 10 9 8 8 9 9 9 8 8 8 8 7 6 6 7 8 8 9 9 9 9 10 9 9 9 9 9 9 9 9 10
14 13 13 11 10 10 9 8 8 8 8 7 6 5 5 6 6 7 7 7 7 7 7 6 6 6 6 6 7 7 7 7 7 7 6 6 6 6 7 7 7 7 7
10 9 8 7 7 6 5 5 5 4 4 4 4 4 5 6 7 7 7 7 7 6 5 5 5 5 5 5 5 4 4 4 4 4 4 4 4 3 3 4 4 5 5
5 4 4 4 3 3 2 2 2 2 2 2 2 4 5 6 7 7 6 6 5 5 5 4 4 4 4 4 3 3 2 2 2 1 1 0 1 1 2 2 3 3 4
4 3 2 2 1 0 0 1 2 2 2 3 3 5 6 7 6 5 6 6 5 5 5 5 5 5 5 5 5 4 4 3 3 2 2 2 2 2 2 3 3 4 5
4 3 2 2 3 3 4 4 4 4 5 6 6 6 7 6 6 6 6 6 7 7 6 6 7 7 6 6 6 6 5 5 5 5 4 4 4 4 4 4 5 5 6
5 4 4 5 6 6 6 6 7 7 7 8 8 7 7 7 7 7 8 8 8 8 8 8 8 8 9 9 8 8 7 7 7 6 6 5 5 5 5 5 6 6 7
6 6 7 7 7 7 7 7 8 8 9 9 9 9 9 9 9 9 9 10 10 10 11 11 11 11 11 10 9 9 8 8 8 8 7 7 7 6 6 7 7 7 8
9 9 8 8 8 8 8 8 9 9 10 10 10 10 11 11 11 12 12 12 13 13 12 12 12 12 12 11 10 10 10 10 9 9 8 8 8 8 8 8 8 8 9
10 10 10 10 10 11 10 10 11 11 11 11 12 12 13 14 14 14 14 14 14 14 14 13 13 13 13 12 12 11 11 11 10 9 9 9 8 8 9 9 9 9 10
11 11 11 12 12 12 13 13 13 14 14 15 15 15 15 15 15 15 15 15 15 15 15 14 14 14 14 14 13 13 12 12 11 11 10 10 9 9 9 9 10 10 11
13 13 13 14 14 14 15 15 15 16 16 17 17 17 17 17 17 17 17 17 17 17 17 17 17 16 16 15 15 14 13 13 12 11 11 10 10 10 10 10 11 11 12
14 14 15 15 16 16 17 17 17 17 18 18 18 18 18 18 18 19 19 19 19 18 18 18 17 17 16 15 15 14 13 12 12 11 11 11 11 11 11 11 12 12 13
15 15 16 16 17 18 18 18 18 18 18 18 18 18 19 19 19 19 19 19 19 18 18 18 17 16 15 14 13 12 12 11 11 11 11 11 11 11 12 12 13 14 16
15 15 16 17 18 18 19 18 18 18 18 18 18 19 19 19 19 18 18 18 17 17 17 16 15 14 13 13 12 11 11 10 10 10 10 11 11 12 13 14 16 17 18
15 15 16 16 17 17 17 17 17 17 17 17 18 18 18 18 18 17 17 17 17 16 16 15 14 13 12 11 11 10 9 9 10 10 10 11 12 13 15 16 17 19 20
Wind_Direction
291 291 289 287 285 284 283 281 279 276 274 274 274 272 270 268 266 265 264 262 261 260 258 258 257 254 254 254 254 255 257 258 258 260 262 261 263 261 262 264 267 269 271
290 289 288 286 284 283 282 280 279 277 274 274 274 273 270 268 267 266 265 264 261 259 257 255 255 254 253 253 254 255 256 255 255 257 259 260 260 261 263 266 266 269 273
288 287 287 286 284 283 281 279 277 276 275 274 273 272 271 268 266 265 264 263 260 258 257 257 256 256 255 254 254 254 252 252 252 254 255 256 260 263 263 264 266 271 274
286 286 285 285 283 282 282 279 276 274 273 272 273 273 271 269 267 265 263 262 260 259 259 257 256 255 253 253 253 251 249 249 250 250 252 257 259 261 262 264 268 271 273
285 285 284 283 283 282 282 280 277 275 272 271 272 271 269 268 267 265 262 260 258 258 258 256 255 254 251 250 249 247 246 246 247 250 253 257 259 259 263 265 267 269 271
286 284 283 283 283 283 281 279 277 274 272 272 271 271 270 267 264 263 260 259 258 259 258 255 253 251 247 245 246 244 243 243 245 248 251 255 257 259 261 264 266 269 271
286 284 284 284 284 284 282 280 277 274 272 271 270 269 268 265 262 260 258 258 257 255 254 251 249 249 244 243 242 241 240 243 246 249 251 254 257 260 262 265 267 269 272
288 286 285 284 284 284 282 280 277 274 272 271 269 267 264 260 257 256 253 252 251 252 252 251 249 245 240 236 235 238 240 241 244 248 251 255 260 262 263 266 267 271 274
288 288 287 285 286 284 281 277 274 273 272 270 267 264 260 257 254 249 244 245 247 247 248 247 244 241 237 233 235 238 239 243 246 248 252 257 259 262 264 268 271 273 274
288 288 287 286 284 283 280 275 274 272 272 269 266 262 258 255 250 242 240 240 236 235 235 232 233 230 225 223 229 234 238 243 246 251 256 257 257 260 262 266 271 275 281
287 287 286 285 283 280 277 273 273 272 271 265 262 258 254 248 240 235 229 221 220 218 218 218 218 216 214 218 224 230 235 243 249 253 253 253 255 259 263 270 276 282 289
291 288 285 284 282 277 271 269 272 272 263 260 252 244 235 221 203 201 201 197 194 197 203 204 209 214 215 221 225 229 233 238 244 244 244 253 257 266 276 282 286 291 297
299 294 291 289 281 274 271 270 270 271 259 255 241 217 206 192 183 183 183 183 187 189 193 197 203 207 206 210 215 215 213 222 231 236 245 255 262 281 293 296 296 305 314
318 314 311 310 290 271 264 264 253 243 233 224 201 187 183 175 171 173 179 186 189 193 191 190 186 181 181 181 179 183 191 176 160 164 167 195 5 356 344 339 339 340 340
339 341 337 339 337 41 122 133 149 144 134 142 141 146 151 156 163 166 175 175 175 173 166 159 157 155 153 152 148 145 140 130 121 117 109 93 78 64 51 40 21 6 356
28 35 45 71 79 88 89 105 116 119 119 121 121 126 131 137 148 145 142 144 138 138 139 138 137 136 134 133 129 124 115 109 107 104 97 87 77 70 59 40 26 16 10
56 65 81 94 98 97 97 102 104 108 109 110 112 116 119 123 127 129 127 125 126 125 126 126 126 121 118 116 114 110 106 102 99 98 94 85 76 66 53 39 28 21 15
66 77 89 97 98 98 103 104 105 108 108 108 107 107 111 116 119 120 121 121 120 119 118 117 117 115 112 111 109 107 104 102 98 94 89 81 72 62 52 41 33 25 18
76 82 90 95 96 99 102 104 106 106 105 105 106 108 111 114 115 115 114 113 114 114 114 113 113 111 111 109 106 103 102 100 96 89 82 75 67 59 49 41 34 27 19
82 84 89 94 98 100 100 101 105 106 105 105 106 109 111 111 112 112 110 109 111 112 112 110 109 109 108 106 104 102 99 95 90 84 78 71 63 56 50 42 34 26 19
85 87 90 96 100 100 100 102 104 103 104 104 106 109 110 110 109 109 109 110 110 110 110 109 108 107 105 102 100 97 93 88 83 79 73 68 62 56 49 41 33 27 21
88 89 93 98 101 103 105 106 105 104 104 105 105 105 107 107 106 107 108 108 108 107 107 107 106 104 102 99 96 93 89 85 81 75 70 64 57 50 42 34 28 20 13
92 95 99 100 102 105 106 107 106 106 106 106 106 105 106 106 107 108 107 106 105 106 106 106 104 102 99 97 94 90 86 81 75 70 64 57 50 42 33 25 16 8 2
98 100 101 103 105 106 107 107 107 107 108 108 107 106 106 106 106 106 106 106 106 105 105 103 101 99 97 93 89 84 79 73 67 61 54 46 37 29 21 13 6 360 354
100 102 103 105 108 109 109 109 109 108 108 108 108 108 107 107 107 107 107 106 105 104 102 100 98 96 92 89 84 79 73 66 59 50 41 32 23 15 8 1 356 352 347
103 104 104 106 108 110 110 111 111 111 110 109 109 110 110 109 109 108 107 105 103 101 99 98 96 93 89 85 79 72 64 55 45 35 25 16 9 2 356 352 348 344 341
Height
5779 5777 5776 5774 5773 5772 5771 5770 5769 5768 5768 5767 5767 5766 5765 5765 5766 5766 5766 5767 5768 5768 5769 5770 5771 5772 5773 5774 5775 5776 5778 5779 5780 5781 5781 5783 5783 5784 5784 5784 5783 5783 5782
5773 5771 5769 5768 5767 5765 5764 5763 5762 5762 5761 5760 5760 5759 5759 5759 5759 5759 5760 5760 5761 5761 5762 5763 5763 5764 5765 5766 5767 5769 5770 5772 5773 5774 5774 5775 5776 5776 5776 5776 5776 5775 5775
5766 5764 5762 5761 5760 5758 5757 5756 5755 5755 5754 5754 5753 5753 5752 5752 5752 5752 5753 5753 5753 5754 5755 5755 5756 5757 5758 5759 5760 5762 5763 5764 5766 5767 5768 5769 5769 5770 5770 5770 5769 5768 5767
5759 5757 5755 5754 5752 5751 5750 5749 5748 5748 5747 5747 5746 5746 5745 5745 5745 5745 5746 5746 5746 5747 5748 5748 5749 5750 5751 5752 5753 5755 5756 5757 5759 5760 5761 5762 5763 5763 5763 5763 5762 5762 5761
5751 5749 5748 5746 5745 5744 5743 5742 5741 5740 5740 5739 5739 5739 5738 5738 5738 5739 5739 5739 5740 5740 5741 5741 5742 5743 5744 5746 5747 5749 5750 5751 5753 5754 5755 5756 5757 5757 5757 5756 5756 5755 5755
5743 5742 5740 5739 5738 5736 5735 5734 5733 5733 5732 5732 5731 5731 5731 5731 5731 5731 5732 5733 5733 5734 5734 5735 5736 5737 5738 5740 5741 5743 5744 5746 5748 5749 5749 5750 5750 5751 5751 5750 5750 5750 5749
5736 5734 5733 5732 5730 5729 5728 5727 5726 5725 5725 5725 5724 5724 5724 5724 5725 5725 5726 5727 5727 5728 5729 5730 5730 5731 5733 5734 5736 5737 5739 5741 5743 5744 5744 5745 5745 5745 5745 5745 5745 5744 5743
5729 5727 5726 5725 5723 5722 5721 5720 5719 5719 5718 5718 5718 5718 5718 5718 5719 5720 5720 5721 5723 5723 5724 5725 5726 5727 5728 5730 5731 5733 5735 5736 5738 5738 5739 5740 5740 5740 5740 5740 5740 5739 5738
5723 5721 5720 5718 5717 5715 5715 5714 5713 5713 5713 5712 5712 5712 5713 5713 5714 5715 5716 5717 5718 5719 5720 5721 5722 5723 5724 5726 5728 5729 5731 5732 5733 5734 5734 5735 5735 5736 5736 5736 5735 5735 5734
5717 5715 5714 5712 5711 5710 5709 5709 5708 5708 5708 5708 5708 5708 5708 5709 5709 5710 5711 5713 5714 5715 5717 5718 5719 5720 5721 5723 5724 5726 5727 5728 5729 5730 5731 5731 5731 5732 5732 5731 5731 5730 5729
5711 5710 5709 5707 5706 5705 5705 5704 5704 5704 5704 5704 5704 5704 5704 5705 5706 5707 5708 5710 5712 5713 5715 5716 5717 5718 5719 5720 5722 5723 5724 5725 5726 5727 5727 5727 5728 5728 5728 5728 5727 5727 5726
5707 5705 5704 5704 5703 5702 5701 5701 5701 5701 5701 5701 5701 5702 5702 5703 5704 5705 5707 5708 5710 5711 5713 5714 5715 5716 5717 5718 5719 5720 5721 5722 5723 5724 5724 5725 5725 5725 5725 5725 5724 5724 5723
5703 5702 5701 5701 5700 5699 5699 5699 5699 5699 5699 5699 5700 5700 5701 5702 5703 5705 5706 5708 5709 5711 5712 5713 5714 5715 5716 5717 5718 5719 5719 5720 5721 5722 5722 5723 5723 5723 5723 5723 5722 5722 5721
5701 5700 5699 5699 5698 5698 5698 5698 5698 5698 5698 5698 5699 5699 5700 5701 5703 5704 5706 5707 5709 5710 5711 5712 5713 5714 5715 5716 5717 5718 5719 5719 5720 5721 5721 5722 5722 5722 5722 5721 5721 5720 5720
5700 5699 5699 5698 5698 5698 5697 5697 5698 5698 5698 5698 5699 5699 5700 5702 5703 5705 5706 5707 5708 5709 5711 5712 5713 5714 5715 5716 5717 5718 5719 5719 5720 5720 5721 5721 5721 5721 5721 5721 5720 5720 5719
5700 5699 5699 5699 5698 5698 5698 5698 5698 5698 5699 5699 5700 5700 5701 5703 5704 5705 5706 5707 5709 5710 5711 5712 5713 5714 5715 5716 5717 5718 5719 5720 5720 5721 5721 5721 5721 5721 5721 5721 5720 5719 5718
5701 5700 5700 5700 5699 5699 5700 5700 5700 5700 5700 5701 5701 5702 5703 5704 5705 5706 5707 5708 5710 5711 5712 5713 5714 5715 5716 5717 5719 5719 5720 5721 5721 5722 5722 5722 5722 5722 5722 5721 5720 5719 5718
5702 5702 5701 5701 5701 5701 5701 5702 5702 5702 5703 5703 5704 5704 5705 5706 5707 5708 5709 5710 5711 5712 5713 5715 5716 5717 5718 5719 5720 5721 5722 5723 5723 5723 5723 5723 5723 5723 5722 5722 5721 5720 5719
5704 5704 5704 5703 5704 5704 5704 5704 5704 5705 5705 5706 5706 5707 5708 5708 5709 5710 5711 5713 5714 5715 5716 5717 5719 5720 5721 5722 5723 5724 5724 5725 5725 5725 5725 5725 5725 5724 5723 5723 5722 5720 5719
5707 5707 5707 5706 5706 5707 5707 5707 5707 5708 5708 5709 5709 5710 5711 5712 5713 5714 5715 5716 5717 5718 5719 5721 5722 5723 5724 5725 5725 5726 5727 5727 5727 5727 5727 5727 5726 5725 5725 5724 5722 5721 5719
5710 5710 5710 5710 5710 5710 5710 5711 5711 5712 5712 5713 5714 5714 5715 5716 5717 5718 5719 5720 5721 5722 5723 5724 5725 5726 5727 5728 5728 5729 5729 5729 5729 5729 5729 5728 5728 5727 5726 5725 5723 5721 5719
5714 5714 5714 5714 5714 5714 5715 5715 5716 5717 5717 5718 5718 5719 5720 5720 5721 5722 5723 5724 5725 5726 5727 5728 5729 5730 5730 5731 5732 5732 5732 5732 5732 5732 5731 5730 5730 5728 5727 5726 5724 5722 5719
5719 5718 5718 5718 5718 5719 5719 5720 5721 5722 5722 5723 5723 5724 5725 5725 5726 5727 5728 5729 5730 5730 5731 5732 5733 5734 5734 5735 5735 5735 5735 5735 5734 5734 5733 5732 5731 5730 5728 5726 5724 5721 5719
5724 5724 5724 5723 5724 5724 5725 5725 5726 5727 5728 5728 5729 5729 5730 5731 5731 5732 5733 5734 5735 5735 5736 5736 5737 5738 5738 5738 5738 5738 5738 5737 5737 5736 5735 5733 5732 5730 5728 5726 5723 5721 5718
5729 5729 5729 5729 5729 5729 5730 5731 5732 5732 5733 5733 5734 5735 5735 5736 5737 5737 5738 5739 5739 5740 5740 5740 5741 5741 5741 5741 5741 5741 5740 5739 5738 5737 5736 5734 5732 5730 5728 5725 5722 5719 5716
5733 5734 5734 5734 5734 5735 5735 5736 5737 5737 5738 5738 5739 5740 5740 5741 5741 5742 5743 5743 5743 5744 5744 5744 5744 5744 5744 5744 5743 5743 5742 5741 5739 5738 5736 5734 5732 5730 5727 5724 5721 5717 5713